Weather History for Benton Harbor, MI

Change the Weather History Date:

Friday, April 12, 2013

  Actual Average Record
Temperature  
Mean Temperature 41 °F -  
Max Temperature 45 °F 56 °F 82 °F (1971)
Min Temperature 37 °F 33 °F 21 °F (1982)
Degree Days  
Heating Degree Days 24    
Moisture  
Dew Point 36 °F    
Average Humidity 87    
Maximum Humidity 100    
Minimum Humidity 68    
Precipitation  
Precipitation 0.07 in - - ()
Sea Level Pressure  
Sea Level Pressure 29.64 in    
Wind  
Wind Speed 12 mph (SW)    
Max Wind Speed 22 mph    
Max Gust Speed 30 mph    
Visibility 8 miles    
Events Rain    
Averages and records for this station are not official NWS values.
T = Trace of Precipitation, MM = Missing Value Source: NWS Daily Summary

Daily Weather History Graph

Daily Weather History Graph

Search for Another Location

Airport:

Trip Planner

Search our weather history database for the weather conditions in past years. The results will help you decide how hot, cold, wet, or windy it might be!

Date:

Astronomy

Apr. 12, 2013 Rise Set
Actual Time 7:09 AM EDT 8:23 PM EDT
Civil Twilight 6:40 AM EDT 8:52 PM EDT
Nautical Twilight 6:06 AM EDT 9:27 PM EDT
Astronomical Twilight 5:29 AM EDT 10:04 PM EDT
Moon 8:16 AM EDT (4/12) 10:56 PM EDT (4/12)
Length of Visible Light 14h 12m
Length of Day
13h 14m
Waxing Crescent, 5% of the Moon is Illuminated
Apr 12
Waxing Crescent
Apr 18
First Quarter
Apr 25
Full
May 2
Last Quarter
May 9
New

Hourly Weather History & Observations

Time (EDT) Temp. Windchill Dew Point Humidity Pressure Visibility Wind Dir Wind Speed Gust Speed Precip Events Conditions
12:16 AM 39.2 °F 32.0 °F 37.4 °F 93% 29.59 in 10.0 mi ESE 11.5 mph - 0.00 in Rain Light Rain
12:29 AM 39.2 °F 33.6 °F 37.4 °F 93% 29.59 in 8.0 mi ESE 8.1 mph - 0.01 in Rain Light Rain
12:44 AM 39.2 °F 34.2 °F 37.4 °F 93% 29.58 in 9.0 mi ESE 6.9 mph - 0.01 in Rain Light Rain
12:53 AM 39.9 °F 33.9 °F 37.9 °F 93% 29.59 in 10.0 mi East 9.2 mph - 0.02 in Rain Light Rain
1:39 AM 39.2 °F 33.6 °F 37.4 °F 93% 29.58 in 4.0 mi ESE 8.1 mph - 0.00 in Rain Light Rain
1:53 AM 39.9 °F 34.5 °F 37.9 °F 93% 29.60 in 4.0 mi ESE 8.1 mph - 0.00 in   Overcast
2:37 AM 39.2 °F 35.9 °F 37.4 °F 93% 29.58 in 2.5 mi SSE 4.6 mph - 0.01 in   Overcast
2:46 AM 39.2 °F 35.0 °F 37.4 °F 93% 29.58 in 2.0 mi SSE 5.8 mph - 0.01 in   Overcast
2:53 AM 39.0 °F 35.7 °F 39.0 °F 100% 29.59 in 2.0 mi SSE 4.6 mph - 0.01 in   Overcast
3:28 AM 39.2 °F 35.9 °F 39.2 °F 100% 29.59 in 1.5 mi South 4.6 mph - 0.01 in Rain Light Rain
3:45 AM 39.2 °F 33.0 °F 39.2 °F 100% 29.58 in 2.0 mi WSW 9.2 mph - 0.02 in Rain Light Rain
3:53 AM 39.9 °F 33.4 °F 39.0 °F 97% 29.59 in 1.8 mi WSW 10.4 mph - 0.02 in   Overcast
4:19 AM 39.2 °F 33.0 °F 39.2 °F 100% 29.58 in 2.0 mi WSW 9.2 mph - 0.01 in   Overcast
4:39 AM 39.2 °F 31.2 °F 37.4 °F 93% 29.57 in 5.0 mi WSW 13.8 mph - 0.02 in   Overcast
4:53 AM 39.0 °F 31.4 °F 37.9 °F 96% 29.58 in 9.0 mi WSW 12.7 mph 20.7 mph 0.02 in   Overcast
5:05 AM 39.2 °F 33.0 °F 37.4 °F 93% 29.57 in 10.0 mi WSW 9.2 mph - N/A   Overcast
5:26 AM 39.2 °F 32.5 °F 37.4 °F 93% 29.57 in 10.0 mi WSW 10.4 mph - N/A   Overcast
5:53 AM 39.0 °F 31.8 °F 37.0 °F 93% 29.58 in 10.0 mi WSW 11.5 mph - N/A   Overcast
6:02 AM 39.2 °F 32.5 °F 37.4 °F 93% 29.57 in 10.0 mi WSW 10.4 mph - N/A   Overcast
6:35 AM 37.4 °F 28.9 °F 35.6 °F 93% 29.57 in 7.0 mi WSW 13.8 mph - N/A   Overcast
6:53 AM 37.9 °F 30.5 °F 36.0 °F 93% 29.59 in 7.0 mi West 11.5 mph - N/A   Overcast
7:44 AM 37.4 °F 30.8 °F 35.6 °F 93% 29.58 in 9.0 mi WSW 9.2 mph - N/A   Overcast
7:53 AM 37.9 °F 32.1 °F 35.1 °F 89% 29.60 in 9.0 mi WSW 8.1 mph - N/A   Overcast
8:28 AM 37.4 °F 29.3 °F 35.6 °F 93% 29.59 in 8.0 mi SW 12.7 mph 19.6 mph N/A   Overcast
8:38 AM 37.4 °F 28.9 °F 33.8 °F 87% 29.59 in 10.0 mi WSW 13.8 mph - N/A   Overcast
8:51 AM 37.4 °F 28.2 °F 33.8 °F 87% 29.60 in 10.0 mi SW 16.1 mph - N/A   Overcast
8:53 AM 37.9 °F 28.2 °F 33.1 °F 83% 29.61 in 10.0 mi WSW 18.4 mph 21.9 mph N/A   Overcast
9:53 AM 37.9 °F 28.5 °F 33.1 °F 83% 29.62 in 10.0 mi SW 17.3 mph 21.9 mph N/A   Overcast
10:39 AM 37.4 °F 28.2 °F 33.8 °F 87% 29.62 in 10.0 mi SW 16.1 mph 24.2 mph N/A   Overcast
10:53 AM 37.9 °F 28.5 °F 33.1 °F 83% 29.64 in 10.0 mi SW 17.3 mph 23.0 mph N/A   Overcast
11:16 AM 37.4 °F 27.8 °F 33.8 °F 87% 29.63 in 10.0 mi SW 17.3 mph 27.6 mph N/A   Overcast
11:53 AM 39.0 °F 31.0 °F 33.1 °F 79% 29.65 in 10.0 mi SW 13.8 mph 21.9 mph N/A   Overcast
12:53 PM 39.9 °F 30.0 °F 34.0 °F 79% 29.66 in 10.0 mi SW 21.9 mph 27.6 mph N/A   Overcast
1:53 PM 44.1 °F 35.9 °F 34.0 °F 68% 29.66 in 10.0 mi WSW 19.6 mph 29.9 mph N/A   Overcast
2:53 PM 45.0 °F 37.9 °F 36.0 °F 71% 29.68 in 10.0 mi WSW 16.1 mph 25.3 mph N/A   Overcast
3:53 PM 44.1 °F 36.2 °F 36.0 °F 73% 29.70 in 10.0 mi WSW 18.4 mph 25.3 mph N/A   Overcast
4:53 PM 43.0 °F 34.8 °F 36.0 °F 76% 29.70 in 10.0 mi SW 18.4 mph 26.5 mph N/A   Overcast
5:53 PM 43.0 °F 35.4 °F 35.1 °F 74% 29.73 in 10.0 mi SW 16.1 mph 25.3 mph N/A   Overcast
6:53 PM 42.1 °F 32.8 °F 36.0 °F 79% 29.75 in 10.0 mi WSW 21.9 mph 25.3 mph N/A   Overcast
7:05 PM 42.8 °F 35.1 °F 35.6 °F 76% 29.74 in 10.0 mi WSW 16.1 mph 25.3 mph N/A   Overcast
7:53 PM 41.0 °F 32.8 °F 36.0 °F 82% 29.77 in 10.0 mi WSW 16.1 mph 27.6 mph N/A   Overcast
8:53 PM 39.9 °F 30.8 °F 35.1 °F 83% 29.78 in 10.0 mi WSW 18.4 mph 28.8 mph N/A   Overcast
9:53 PM 39.0 °F 28.8 °F 35.1 °F 86% 29.81 in 10.0 mi West 21.9 mph 29.9 mph N/A   Overcast
10:02 PM 39.2 °F 30.2 °F 35.6 °F 87% 29.80 in 10.0 mi West 17.3 mph 25.3 mph N/A   Overcast
10:53 PM 39.0 °F 29.9 °F 34.0 °F 82% 29.83 in 10.0 mi West 17.3 mph 26.5 mph N/A   Overcast
11:28 PM 39.2 °F 30.5 °F 32.0 °F 75% 29.82 in 10.0 mi West 16.1 mph - N/A   Overcast
11:53 PM 37.9 °F 29.2 °F 32.0 °F 79% 29.84 in 10.0 mi West 15.0 mph - N/A   Overcast